Regional Weather Roundup
Issued by NWS San Angelo, TX

Home | Current Version | Previous Version | Text Only | Print | Product List | Glossary On
Versions: 1 2 3 4 5 6 7 8 9 10 11 12 13 14 15 16 17 18 19 20 21 22 23 24 25 26 27 28 29 30 31 32 33 34 35 36 37 38 39 40 41 42 43 44 45 46 47 48 49 50
062
ASUS44 KSJT 171958
RWRSJT
WEST CENTRAL TEXAS REGIONAL WEATHER ROUNDUP
NATIONAL WEATHER SERVICE SAN ANGELO TX
200 PM CST WED JAN 17 2018

NOTE: "FAIR" INDICATES FEW OR NO CLOUDS BELOW 12,000 FEET WITH NO
SIGNIFICANT WEATHER AND/OR OBSTRUCTIONS TO VISIBILITY.

TXZ049-054-064>066-071>073-076>078-098-099-113-114-127-128-139-140-
154-155-168>170-172100
...LOCATIONS ACROSS WEST CENTRAL TEXAS...

CITY           SKY/WX    TMP DP  RH WIND       PRES   REMARKS
SAN ANGELO     PTSUNNY   38  -3  17 CALM      30.52F
ABILENE        SUNNY     37   1  22 E7        30.54F WCI  32
DYESS AFB      NOT AVBL
JUNCTION       CLOUDY    37  -3  18 S5        30.53F WCI  33
SWEETWATER     NOT AVBL
BROWNWOOD      NOT AVBL
COLEMAN        NOT AVBL
SONORA         NOT AVBL
OZONA          NOT AVBL
BRADY          NOT AVBL
$$

TEXAS PANHANDLE/OKLAHOMA PANHANDLE

CITY           SKY/WX    TMP DP  RH WIND       PRES   REMARKS
AMARILLO       SUNNY     43  10  26 S20G26    30.35F WCI  34
BORGER         SUNNY     46  13  26 SW14G25   30.35F WCI  40
CANADIAN       NOT AVBL
DALHART        SUNNY     44  11  26 SW17G24   30.30F WCI  36
DUMAS          NOT AVBL
GUYMON         NOT AVBL
HEREFORD       NOT AVBL
PAMPA          NOT AVBL
PERRYTON       NOT AVBL
$$

SOUTHERN PANHANDLE/SOUTH PLAINS/ROLLING PLAINS

CITY           SKY/WX    TMP DP  RH WIND       PRES   REMARKS
LUBBOCK        SUNNY     41   4  21 S17       30.41F WCI  32
SNYDER         NOT AVBL
CHILDRESS      SUNNY     40   0  18 S14       30.49F WCI  32
SEMINOLE       NOT AVBL
$$

PERMIAN BASIN

CITY           SKY/WX    TMP DP  RH WIND       PRES   REMARKS
MIDLAND        CLOUDY    36  -9  14 SE12      30.44F WCI  28
ODESSA         CLOUDY    36  -8  15 S12       30.44F WCI  28
WINK           CLOUDY    35  -7  16 SE10      30.43F WCI  27
$$

FAR WEST/SOUTHWEST MOUNTAINS/TRANS PECOS

CITY           SKY/WX    TMP DP  RH WIND       PRES   REMARKS
ALPINE         NOT AVBL
DRYDEN         NOT AVBL
EL PASO        PTSUNNY   40  14  34 N6        30.37F WCI  36
FORT STOCKTON  CLOUDY    36   5  27 E10       30.40F WCI  28
GUADALUPE PASS NOT AVBL
MARFA          NOT AVBL
PECOS          NOT AVBL
$$

DALLAS/FORT WORTH METROPLEX

CITY           SKY/WX    TMP DP  RH WIND       PRES   REMARKS
DFW AIRPORT    SUNNY     34   2  25 VRB3      30.65F
FTW MEACHAM    SUNNY     32   2  27 E3        30.65F
DAL-EXECUTIVE  SUNNY     32   0  25 VRB5      30.65F WCI  27
GRAND PRAIRIE  SUNNY     32   1  27 CALM      30.68F
ADDISON        SUNNY     30   3  31 NW3       30.67F
MESQUITE       CLEAR     30   1  29 N8        30.69F WCI  23
LANCASTER      NOT AVBL
$$

NORTH CENTRAL TEXAS

CITY           SKY/WX    TMP DP  RH WIND       PRES   REMARKS
SHRMAN/DENISON NOT AVBL
GAINESVILLE    NOT AVBL
BRIDGEPORT     NOT AVBL
DENTON         SUNNY     32   5  32 N3        30.66F
WAXAHACHIE     NOT AVBL
GRANBURY       NOT AVBL
$$

WESTERN NORTH TEXAS

CITY           SKY/WX    TMP DP  RH WIND       PRES   REMARKS
WICHITA FALLS  SUNNY     32   1  26 SE8       30.61F WCI  25
VERNON         NOT AVBL
BRECKENRIDGE   NOT AVBL
COMANCHE       NOT AVBL
$$

CENTRAL AND SOUTH CENTRAL TEXAS

CITY           SKY/WX    TMP DP  RH WIND       PRES   REMARKS
AUSTIN/BERGSTM SUNNY     34  12  40 NE8       30.65F WCI  27
WACO           SUNNY     33   8  35 NE8       30.67F WCI  26
HILLSBORO      NOT AVBL
TEMPLE         SUNNY     33   5  30 NE8       30.65F WCI  26
KILLEEN-GRAY   NOT AVBL
FORT HOOD      NOT AVBL
GEORGETOWN     NOT AVBL
LAGO VISTA     NOT AVBL
SAN MARCOS     NOT AVBL
NEW BRAUNFELS  SUNNY     37  13  37 E10       30.63F WCI  30
RANDOLPH AFB   NOT AVBL
SAN ANTONIO    PTSUNNY   36   7  29 VRB3      30.62F
STINSON        CLOUDY    34  11  38 CALM      30.63F
PLEASANTON     NOT AVBL
LA GRANGE        N/A     34  15  45 NE6       30.64F WCI  29
GIDDINGS       NOT AVBL
$$

EAST TEXAS

CITY           SKY/WX    TMP DP  RH WIND       PRES   REMARKS
PARIS          NOT AVBL
CLARKSVILLE    NOT AVBL
TYLER          SUNNY     31   9  39 NE8       30.67F WCI  23
LONGVIEW       SUNNY     29  15  56 E6        30.69F WCI  23
PALESTINE      NOT AVBL
NACOGDOCHES    NOT AVBL
$$

TEXAS HILL COUNTRY AND EDWARDS PLATEAU

CITY           SKY/WX    TMP DP  RH WIND       PRES   REMARKS
LLANO          NOT AVBL
HORSESHOE BAY  NOT AVBL
KERRVILLE      NOT AVBL
FREDERICKSBRG  NOT AVBL
ROCKSPRINGS    NOT AVBL
HONDO          CLOUDY    36  10  34 NE3       30.62F
UVALDE         NOT AVBL
DEL RIO        CLOUDY    37   5  26 S9        30.58F WCI  30
$$

SOUTHEAST TEXAS

CITY           SKY/WX    TMP DP  RH WIND       PRES   REMARKS
COLLEGE STN    SUNNY     35   9  33 NE9       30.65F WCI  28
CALDWELL       NOT AVBL
CROCKETT       NOT AVBL
BRENHAM        NOT AVBL
HUNTSVILLE     SUNNY     33  11  39 N6        30.64F WCI  28
CONROE         SUNNY     35  13  40 N8        30.65F WCI  29
HOUSTON BUSH   MOSUNNY   36  14  40 NE6       30.65F WCI  31
HOUSTON HOBBY  FAIR      33  13  43 VRB3      30.65F
PERLAND        FAIR      34  14  43 N7        30.67F WCI  28
WHARTON        NOT AVBL
$$

THE UPPER TEXAS COAST

CITY           SKY/WX    TMP DP  RH WIND       PRES   REMARKS
ORANGE         NOT AVBL
PORT ARTHUR    FAIR      36  14  40 N12       30.63F WCI  28
GALVESTON      FAIR      33  19  56 N10       30.66F WCI  25
ANGLETON       FAIR      35  17  47 N12       30.65F WCI  27
BAY CITY       NOT AVBL
$$

TEXAS COASTAL BEND, RIO GRANDE PLAINS DEEP SOUTH TEXAS

CITY           SKY/WX    TMP DP  RH WIND       PRES   REMARKS
VICTORIA       CLOUDY    34  13  41 N10       30.67F WCI  26
BEEVILLE       NOT AVBL
ROCKPORT       CLOUDY    34  12  40 N8        30.67F WCI  27
PORT ARANSAS   NOT AVBL
PORT LAVACA    NOT AVBL
CORPUS CHRISTI CLOUDY    33  12  41 NE8       30.68F WCI  26
KINGSVILLE NAS NOT AVBL
COTULLA        CLOUDY    34   7  32 S5        30.65F WCI  30
LAREDO         NOT AVBL
BROWNSVILLE    NOT AVBL
PORT ISABEL    NOT AVBL
HEBBRONVILLE   NOT AVBL
MCALLEN        NOT AVBL
WESLACO        NOT AVBL
FALFURRIAS     NOT AVBL
EDINBURG       NOT AVBL
$$




USA.gov is the U.S. government's official web portal to all federal, state and local government web resources and services.